EW4552 Weather Reports


Display with metric or nautical units.
time (UTC)temp
F
wind
direction
speed
MPH
gust
MPH
rain 1hr
in
rain 24hr
in
rain mn
in
humidity
%
barometer
mb
20210922021021 60 128 0.0 0.0 0.00 0.01 0.01 95 1027.0
20210922020518 60 127 0.0 0.0 0.00 0.01 0.01 95 1026.9
20210922020018 60 127 0.0 0.0 0.00 0.01 0.01 95 1027.0
20210922015515 60 128 0.0 0.0 0.00 0.01 0.01 95 1027.0
20210922015012 60 128 0.0 0.0 0.00 0.01 0.01 95 1027.0
20210922014512 60 127 0.0 1.0 0.00 0.01 0.01 95 1027.0
20210922014010 60 128 0.0 1.0 0.00 0.01 0.01 95 1027.0
20210922013509 60 128 0.0 0.0 0.00 0.01 0.01 94 1027.1
20210922013007 60 128 0.0 0.0 0.00 0.01 0.01 94 1027.2
20210922012507 60 128 0.0 0.0 0.00 0.01 0.01 94 1027.2
20210922012008 60 128 0.0 0.0 0.00 0.01 0.01 94 1027.4
20210922011510 60 128 0.0 1.0 0.00 0.01 0.01 94 1027.4
20210922011007 60 128 0.0 1.0 0.00 0.01 0.01 94 1027.5
20210922010507 60 128 0.0 0.0 0.00 0.01 0.01 94 1027.2
20210922010009 60 128 0.0 0.0 0.00 0.01 0.01 94 1027.4
20210922005509 60 128 0.0 0.0 0.00 0.01 0.01 94 1027.2
20210922005008 60 128 0.0 0.0 0.00 0.01 0.01 94 1027.2
20210922004507 60 128 0.0 0.0 0.00 0.01 0.01 93 1027.2
20210922004006 60 128 0.0 2.0 0.00 0.01 0.01 93 1027.2
20210922003508 60 128 0.0 2.0 0.00 0.01 0.01 93 1027.4
20210922003006 60 124 0.0 2.0 0.00 0.01 0.01 93 1027.5
20210922002506 60 123 0.0 0.0 0.00 0.01 0.01 93 1027.2
20210922002007 60 123 0.0 1.0 0.00 0.01 0.01 92 1027.2
20210922001505 60 123 0.0 1.0 0.00 0.01 0.01 92 1027.2
20210922001005 60 123 0.0 0.0 0.00 0.01 0.01 92 1027.2
20210922000507 60 123 0.0 0.0 0.00 0.01 0.01 91 1027.2
20210922000006 60 123 0.0 0.0 0.00 0.01 0.01 91 1027.2
20210921235506 61 123 0.0 0.0 0.00 0.01 0.01 91 1027.2
20210921235004 61 123 0.0 1.0 0.00 0.01 0.01 90 1027.2
20210921234503 61 123 0.0 2.0 0.00 0.01 0.01 90 1027.4
20210921234007 61 123 0.0 2.0 0.00 0.01 0.01 89 1027.2
20210921233505 61 121 0.0 1.0 0.00 0.01 0.01 88 1027.2
20210921233004 62 121 0.0 1.0 0.00 0.01 0.01 87 1027.2
20210921232506 62 121 0.0 0.0 0.00 0.01 0.01 87 1027.2
20210921232003 62 121 0.0 0.0 0.00 0.01 0.01 87 1027.1
20210921231504 63 121 0.0 2.0 0.00 0.01 0.01 87 1027.1
20210921231003 63 121 0.0 2.0 0.00 0.01 0.01 87 1027.1
20210921230502 63 121 0.0 1.0 0.00 0.01 0.01 86 1027.1
20210921230002 64 121 0.0 1.0 0.00 0.01 0.01 84 1027.0
20210921225502 64 121 0.0 0.0 0.00 0.01 0.01 84 1026.9
20210921225002 64 121 0.0 0.0 0.00 0.01 0.01 84 1026.9
20210921224504 65 121 0.0 1.0 0.00 0.01 0.01 83 1026.9
20210921224003 65 121 0.0 1.0 0.00 0.01 0.01 83 1026.9
20210921223501 65 121 0.0 1.0 0.00 0.01 0.01 82 1027.0
20210921223002 65 121 0.0 3.0 0.00 0.01 0.01 82 1026.9
20210921222500 66 121 0.0 3.0 0.00 0.01 0.01 82 1026.9
20210921222002 66 121 0.0 1.0 0.00 0.01 0.01 82 1026.9
20210921221502 66 121 0.0 1.0 0.00 0.01 0.01 80 1027.0
20210921221001 67 121 0.0 2.0 0.00 0.01 0.01 79 1027.0
20210921220502 67 121 0.0 2.0 0.00 0.01 0.01 78 1026.9
20210921220004 68 121 0.0 2.0 0.00 0.01 0.01 78 1027.0
20210921215501 68 121 1.0 4.0 0.00 0.01 0.01 76 1027.0
20210921215003 69 121 1.0 4.0 0.00 0.01 0.01 74 1027.0
20210921214504 69 153 1.0 4.0 0.00 0.01 0.01 72 1026.9
20210921214004 69 105 1.0 6.0 0.00 0.01 0.01 72 1026.9
20210921213458 70 163 1.0 6.0 0.00 0.01 0.01 71 1026.9
20210921212958 70 119 1.0 3.0 0.00 0.01 0.01 69 1026.9
20210921212457 70 140 1.0 7.0 0.00 0.01 0.01 69 1026.9
20210921211959 71 107 2.0 7.0 0.00 0.01 0.01 67 1026.9
20210921211458 71 109 2.0 8.0 0.00 0.01 0.01 65 1027.0
20210921210957 72 105 1.0 8.0 0.00 0.01 0.01 64 1026.9
20210921210455 72 124 2.0 7.0 0.00 0.01 0.01 63 1027.0
20210921205955 73 137 1.0 7.0 0.00 0.01 0.01 62 1027.0
20210921205454 73 140 2.0 10.0 0.00 0.01 0.01 61 1026.9
20210921204953 73 181 2.0 10.0 0.00 0.01 0.01 60 1027.1
20210921204452 74 161 2.0 8.0 0.00 0.01 0.01 60 1027.1
20210921203955 74 126 2.0 9.0 0.00 0.01 0.01 60 1027.0
20210921203451 74 98 3.0 9.0 0.00 0.01 0.01 58 1027.1
20210921202952 74 135 2.0 9.0 0.00 0.01 0.01 56 1027.1
20210921202451 74 150 1.0 7.0 0.00 0.01 0.01 57 1027.1
20210921201954 74 152 2.0 9.0 0.00 0.01 0.01 56 1027.2
20210921201453 74 213 3.0 9.0 0.00 0.01 0.01 56 1027.2
20210921200952 74 121 2.0 9.0 0.00 0.01 0.01 56 1027.2
20210921200451 74 74 2.0 8.0 0.00 0.01 0.01 55 1027.2
20210921195949 74 116 1.0 5.0 0.00 0.01 0.01 55 1027.4
20210921195450 74 174 1.0 8.0 0.00 0.01 0.01 55 1027.6
20210921194949 73 148 2.0 9.0 0.00 0.01 0.01 55 1027.5
20210921194449 73 241 4.0 11.0 0.00 0.01 0.01 55 1027.5
20210921193950 73 141 4.0 11.0 0.00 0.01 0.01 54 1027.5
20210921193449 73 126 4.0 10.0 0.00 0.01 0.01 54 1027.5
20210921192951 73 94 4.0 10.0 0.00 0.01 0.01 54 1027.6
20210921192449 73 140 4.0 11.0 0.00 0.01 0.01 54 1027.6
20210921191950 73 80 4.0 11.0 0.00 0.01 0.01 54 1027.6
20210921191448 73 152 4.0 14.0 0.00 0.01 0.01 53 1027.7
20210921190949 73 103 5.0 14.0 0.00 0.01 0.01 54 1027.7
20210921190450 73 79 4.0 11.0 0.00 0.01 0.01 54 1027.7
20210921185951 73 69 4.0 11.0 0.00 0.01 0.01 53 1027.8
20210921185449 73 166 4.0 11.0 0.00 0.01 0.01 55 1027.9
20210921184948 73 134 3.0 8.0 0.00 0.01 0.01 54 1027.8
20210921184446 73 115 3.0 10.0 0.00 0.01 0.01 55 1027.9
20210921183946 72 119 4.0 10.0 0.00 0.01 0.01 54 1028.0
20210921183446 72 123 5.0 11.0 0.00 0.01 0.01 55 1028.0
20210921182943 72 141 4.0 15.0 0.00 0.01 0.01 53 1028.0
20210921182442 72 103 4.0 15.0 0.00 0.01 0.01 55 1028.1
20210921181943 73 159 4.0 13.0 0.00 0.01 0.01 54 1028.3
20210921181441 72 130 4.0 12.0 0.00 0.01 0.01 56 1028.3
20210921180937 72 74 5.0 12.0 0.00 0.01 0.01 55 1028.3
20210921180439 73 120 4.0 10.0 0.00 0.01 0.01 56 1028.4
20210921175935 73 129 3.0 11.0 0.00 0.01 0.01 55 1028.4
20210921175435 72 132 4.0 12.0 0.00 0.01 0.01 55 1028.4
20210921174936 72 107 4.0 12.0 0.00 0.01 0.01 55 1028.5
20210921174437 72 130 4.0 11.0 0.00 0.01 0.01 56 1028.7
20210921173933 72 145 4.0 9.0 0.00 0.01 0.01 53 1028.7
20210921173434 71 130 4.0 10.0 0.00 0.01 0.01 54 1028.8
20210921172936 71 79 3.0 10.0 0.00 0.01 0.01 53 1028.8
20210921172432 71 128 3.0 8.0 0.00 0.01 0.01 51 1029.0
20210921171931 71 86 4.0 11.0 0.00 0.01 0.01 52 1029.1
20210921171431 71 148 4.0 14.0 0.00 0.01 0.01 53 1029.2
20210921170932 71 126 3.0 14.0 0.00 0.01 0.01 52 1029.2
20210921170428 70 107 4.0 11.0 0.00 0.01 0.01 54 1029.2
20210921165930 70 76 3.0 11.0 0.00 0.01 0.01 54 1029.3
20210921165428 69 91 3.0 10.0 0.00 0.01 0.01 56 1029.3
20210921164927 69 80 5.0 11.0 0.00 0.01 0.01 54 1029.4
20210921164427 69 99 5.0 14.0 0.00 0.01 0.01 55 1029.5
20210921163928 69 128 4.0 14.0 0.00 0.01 0.01 55 1029.5
20210921163426 69 123 6.0 16.0 0.00 0.01 0.01 55 1029.5
20210921162930 69 144 6.0 16.0 0.00 0.01 0.01 51 1029.5
20210921162426 68 65 6.0 11.0 0.00 0.01 0.01 53 1029.6
20210921161926 69 84 6.0 12.0 0.00 0.01 0.01 49 1029.6
20210921161427 68 104 6.0 12.0 0.00 0.01 0.01 48 1029.7
20210921160926 68 107 5.0 12.0 0.00 0.01 0.01 46 1029.7
20210921160426 68 126 5.0 14.0 0.00 0.01 0.01 48 1029.7
20210921155929 68 110 6.0 14.0 0.00 0.01 0.01 54 1029.6
20210921155427 68 113 6.0 13.0 0.00 0.01 0.01 56 1029.8
20210921154927 68 146 5.0 12.0 0.00 0.01 0.01 59 1029.8
20210921154428 68 103 5.0 12.0 0.00 0.01 0.01 58 1029.9
20210921153926 68 78 4.0 14.0 0.00 0.01 0.01 61 1029.8
20210921153427 68 131 3.0 14.0 0.00 0.01 0.01 64 1029.9
20210921152926 67 105 3.0 9.0 0.00 0.01 0.01 67 1030.0
20210921152428 67 88 2.0 8.0 0.00 0.01 0.01 69 1030.0
20210921151924 67 118 2.0 8.0 0.00 0.01 0.01 71 1030.2
20210921151424 66 109 2.0 8.0 0.00 0.01 0.01 72 1030.2
20210921150925 65 119 1.0 8.0 0.00 0.01 0.01 74 1030.2
20210921150422 64 102 1.0 6.0 0.00 0.01 0.01 78 1030.2
20210921145922 63 108 1.0 6.0 0.00 0.01 0.01 80 1030.3
20210921145422 63 145 1.0 6.0 0.00 0.01 0.01 81 1030.3
20210921144922 62 101 2.0 7.0 0.00 0.01 0.01 83 1030.2
20210921144426 62 108 2.0 7.0 0.00 0.01 0.01 85 1030.2
20210921143920 61 113 2.0 8.0 0.00 0.01 0.01 87 1030.3
20210921143419 61 132 2.0 8.0 0.00 0.01 0.01 86 1030.4
20210921142920 61 109 1.0 7.0 0.00 0.01 0.01 86 1030.4
20210921142423 61 107 2.0 8.0 0.00 0.01 0.01 87 1030.3
20210921141921 60 117 2.0 8.0 0.00 0.01 0.01 89 1030.4
20210921141422 60 115 1.0 7.0 0.00 0.01 0.01 92 1030.3
20210921140923 59 36 2.0 8.0 0.00 0.01 0.01 94 1030.3
20210921140422 58 91 2.0 8.0 0.00 0.01 0.01 96 1030.3
20210921135920 58 69 2.0 8.0 0.00 0.01 0.01 99 1030.3
20210921135420 58 90 1.0 4.0 0.00 0.01 0.01 99 1030.3
20210921134923 58 88 0.0 4.0 0.00 0.01 0.01 99 1030.4
20210921134420 57 106 0.0 3.0 0.00 0.01 0.01 99 1030.4
20210921133920 57 94 0.0 4.0 0.00 0.01 0.01 99 1030.3
20210921133415 56 52 1.0 4.0 0.00 0.01 0.01 99 1030.4
20210921132917 56 93 1.0 7.0 0.00 0.01 0.01 99 1030.3
20210921132418 56 109 1.0 7.0 0.00 0.01 0.01 99 1030.5
20210921131914 55 65 1.0 6.0 0.00 0.01 0.01 99 1030.4
20210921131414 54 144 0.0 6.0 0.00 0.01 0.01 99 1030.4
20210921130916 54 104 0.0 2.0 0.00 0.01 0.01 99 1030.5
20210921130411 53 84 1.0 4.0 0.00 0.01 0.01 99 1030.5
20210921125912 53 98 1.0 4.0 0.00 0.01 0.01 99 1030.6
20210921125410 53 97 0.0 4.0 0.00 0.01 0.01 99 1030.6
20210921124911 53 73 0.0 2.0 0.00 0.01 0.01 99 1030.7
20210921124409 53 73 0.0 2.0 0.00 0.01 0.01 99 1030.5
20210921123909 52 73 0.0 2.0 0.00 0.01 0.01 99 1030.5
20210921123408 52 73 0.0 3.0 0.00 0.01 0.01 99 1030.6
20210921122908 52 72 0.0 3.0 0.00 0.01 0.01 99 1030.6
20210921122410 52 60 0.0 1.0 0.00 0.01 0.01 99 1030.5
20210921121907 51 55 0.0 0.0 0.00 0.01 0.01 99 1030.6
20210921121409 51 55 0.0 0.0 0.00 0.01 0.01 99 1030.6
20210921120909 50 55 0.0 0.0 0.00 0.01 0.01 99 1030.8
20210921120409 50 55 0.0 0.0 0.00 0.01 0.01 99 1030.8
20210921115909 50 55 0.0 1.0 0.00 0.01 0.01 99 1030.8
20210921115410 50 55 0.0 2.0 0.00 0.01 0.01 99 1030.8
20210921114911 50 55 0.0 2.0 0.01 0.01 0.01 98 1030.8
20210921114405 49 58 0.0 0.0 0.01 0.01 0.01 99 1030.8
20210921113908 49 58 0.0 0.0 0.01 0.01 0.01 99 1030.8
20210921113404 49 58 0.0 0.0 0.01 0.01 0.01 98 1030.8
20210921112902 49 58 0.0 0.0 0.01 0.01 0.01 98 1030.7
20210921112403 48 58 0.0 0.0 0.01 0.01 0.01 98 1030.7
20210921111901 48 58 0.0 0.0 0.01 0.01 0.01 98 1030.7
20210921111401 48 58 0.0 0.0 0.01 0.01 0.01 98 1030.7
20210921110858 48 58 0.0 0.0 0.01 0.01 0.01 98 1030.7
20210921110356 48 58 0.0 0.0 0.01 0.01 0.01 98 1030.6
20210921105856 48 58 0.0 0.0 0.01 0.01 0.01 98 1030.6
20210921105355 48 58 0.0 0.0 0.00 0.00 0.00 98 1030.5
20210921104857 48 58 0.0 0.0 0.00 0.00 0.00 98 1030.4
20210921104357 47 58 0.0 0.0 0.00 0.00 0.00 98 1030.5
20210921103854 47 58 0.0 0.0 0.00 0.00 0.00 98 1030.5
20210921103354 47 58 0.0 0.0 0.00 0.00 0.00 97 1030.4
20210921102854 47 58 0.0 0.0 0.00 0.00 0.00 97 1030.3
20210921102355 47 58 0.0 0.0 0.00 0.00 0.00 97 1030.3
20210921101853 48 58 0.0 0.0 0.00 0.00 0.00 98 1030.3
20210921101352 48 58 0.0 0.0 0.00 0.00 0.00 98 1030.4
20210921100851 48 58 0.0 0.0 0.00 0.00 0.00 98 1030.4
20210921100353 48 58 0.0 0.0 0.00 0.00 0.00 98 1030.4
20210921095855 48 58 0.0 0.0 0.00 0.00 0.00 97 1030.4
20210921095352 48 58 0.0 0.0 0.00 0.00 0.00 98 1030.3
20210921094854 48 58 0.0 0.0 0.00 0.00 0.00 98 1030.3
20210921094352 49 58 0.0 0.0 0.00 0.00 0.00 98 1030.2
20210921093852 49 58 0.0 0.0 0.00 0.00 0.00 98 1030.3
20210921093353 49 58 0.0 0.0 0.00 0.00 0.00 98 1030.3
20210921092851 49 58 0.0 0.0 0.00 0.00 0.00 98 1030.4
20210921092354 49 58 0.0 0.0 0.00 0.00 0.00 98 1030.4
20210921091852 48 58 0.0 0.0 0.00 0.00 0.00 98 1030.4
20210921091350 48 58 0.0 0.0 0.00 0.00 0.00 98 1030.3
20210921090852 48 58 0.0 0.0 0.00 0.00 0.00 98 1030.4
20210921090351 48 58 0.0 0.0 0.00 0.00 0.00 98 1030.4
20210921085850 48 58 0.0 0.0 0.00 0.01 0.00 98 1030.4
20210921085350 47 58 0.0 0.0 0.00 0.01 0.00 97 1030.4
20210921084849 47 58 0.0 0.0 0.00 0.01 0.00 97 1030.4
20210921084350 47 58 0.0 0.0 0.00 0.01 0.00 97 1030.4
20210921083851 47 58 0.0 0.0 0.00 0.01 0.00 97 1030.3
20210921083348 47 58 0.0 0.0 0.00 0.01 0.00 97 1030.3
20210921082847 47 58 0.0 0.0 0.00 0.01 0.00 97 1030.3
20210921082347 47 58 0.0 0.0 0.00 0.01 0.00 97 1030.2
20210921081847 47 58 0.0 0.0 0.00 0.01 0.00 97 1030.2
20210921081347 47 58 0.0 0.0 0.00 0.01 0.00 97 1030.2
20210921080850 47 58 0.0 0.0 0.00 0.01 0.00 96 1030.2
20210921080351 47 58 0.0 0.0 0.00 0.01 0.00 96 1030.2
20210921075848 47 58 0.0 0.0 0.00 0.01 0.00 96 1030.4
20210921075350 47 58 0.0 0.0 0.00 0.01 0.00 96 1030.5
20210921074850 47 58 0.0 0.0 0.00 0.01 0.00 96 1030.4
20210921074346 47 58 0.0 0.0 0.00 0.01 0.00 97 1030.4
20210921073847 47 58 0.0 0.0 0.00 0.01 0.00 96 1030.4
20210921073348 48 58 0.0 0.0 0.00 0.01 0.00 96 1030.2
20210921072848 48 58 0.0 0.0 0.00 0.01 0.00 96 1030.2
20210921072346 48 58 0.0 0.0 0.00 0.01 0.00 97 1030.1
20210921071848 48 58 0.0 0.0 0.00 0.01 0.00 97 1030.1
20210921071344 48 58 0.0 0.0 0.00 0.01 0.00 97 1030.1
20210921070845 48 58 0.0 0.0 0.00 0.01 0.00 96 1030.1
20210921070345 48 58 0.0 0.0 0.00 0.01 0.00 96 1030.1
20210921065843 48 58 0.0 0.0 0.00 0.01 0.00 96 1030.2
20210921065344 48 58 0.0 0.0 0.00 0.01 0.00 96 1030.2
20210921064843 48 58 0.0 0.0 0.00 0.01 0.00 96 1030.2
20210921064344 48 58 0.0 0.0 0.00 0.01 0.00 96 1030.2
20210921063842 49 58 0.0 0.0 0.00 0.01 0.00 96 1030.2
20210921063343 49 58 0.0 1.0 0.00 0.01 0.00 96 1030.4
20210921062843 49 58 0.0 1.0 0.00 0.01 0.00 96 1030.4
20210921062343 49 58 0.0 0.0 0.00 0.01 0.00 96 1030.4
20210921061842 49 58 0.0 0.0 0.00 0.01 0.00 96 1030.4
20210921061343 49 58 0.0 0.0 0.00 0.01 0.00 96 1030.3
20210921060843 49 58 0.0 2.0 0.00 0.01 0.00 96 1030.3
20210921060343 49 58 0.0 2.0 0.00 0.01 0.00 96 1030.3
20210921055840 50 119 0.0 0.0 0.00 0.01 0.00 96 1030.4
20210921055342 50 119 0.0 0.0 0.00 0.01 0.00 96 1030.4
20210921054842 50 119 0.0 0.0 0.00 0.01 0.00 96 1030.5
20210921054342 50 119 0.0 0.0 0.00 0.01 0.00 96 1030.5
20210921053841 50 119 0.0 0.0 0.00 0.01 0.00 96 1030.5
20210921053341 50 119 0.0 0.0 0.00 0.01 0.00 96 1030.5
20210921052841 51 119 0.0 0.0 0.00 0.01 0.00 96 1030.6
20210921052341 51 119 0.0 0.0 0.00 0.01 0.00 96 1030.5
20210921051840 51 119 0.0 0.0 0.00 0.01 0.00 96 1030.5
20210921051342 51 119 0.0 0.0 0.00 0.01 0.00 96 1030.5
20210921050840 51 119 0.0 0.0 0.00 0.01 0.00 96 1030.4
20210921050341 51 119 0.0 0.0 0.00 0.01 0.00 96 1030.4
20210921045839 51 119 0.0 0.0 0.00 0.01 0.00 96 1030.4
20210921045340 51 119 0.0 1.0 0.00 0.01 0.00 96 1030.4
20210921044840 51 119 0.0 1.0 0.00 0.01 0.00 96 1030.3
20210921044341 51 119 0.0 0.0 0.00 0.01 0.00 96 1030.3
20210921043838 51 119 0.0 0.0 0.00 0.01 0.00 96 1030.4
20210921043336 51 119 0.0 2.0 0.00 0.01 0.00 96 1030.5
20210921042837 52 119 0.0 2.0 0.00 0.01 0.00 96 1030.5
20210921042338 52 118 0.0 0.0 0.00 0.01 0.00 96 1030.5
20210921041838 52 118 0.0 0.0 0.00 0.01 0.00 96 1030.6
20210921041336 52 118 0.0 0.0 0.00 0.01 0.00 96 1030.5
20210921040839 52 118 0.0 3.0 0.00 0.01 0.00 96 1030.4
20210921040337 52 118 0.0 3.0 0.00 0.01 0.00 96 1030.4
20210921035838 52 184 0.0 2.0 0.00 0.01 0.01 96 1030.4
20210921035336 52 156 0.0 2.0 0.00 0.01 0.01 96 1030.4
20210921034834 53 156 0.0 2.0 0.00 0.01 0.01 96 1030.4
20210921034334 53 156 0.0 2.0 0.00 0.01 0.01 95 1030.4
20210921033836 53 156 0.0 2.0 0.00 0.01 0.01 95 1030.3
20210921033335 53 155 0.0 0.0 0.00 0.01 0.01 95 1030.2
20210921032832 53 155 0.0 0.0 0.00 0.01 0.01 95 1030.2
20210921032333 53 155 0.0 0.0 0.00 0.01 0.01 95 1030.2
20210921031834 53 155 0.0 0.0 0.00 0.01 0.01 95 1030.1
20210921031331 53 155 0.0 1.0 0.00 0.01 0.01 95 1030.0
20210921030833 53 155 0.0 1.0 0.00 0.01 0.01 95 1030.0
20210921030328 54 155 0.0 1.0 0.00 0.01 0.01 94 1030.0
20210921025829 54 155 0.0 1.0 0.00 0.01 0.01 95 1030.0
20210921025328 54 155 0.0 0.0 0.00 0.01 0.01 94 1030.0
20210921024826 54 155 0.0 0.0 0.00 0.01 0.01 95 1030.0
20210921024326 54 155 0.0 0.0 0.00 0.01 0.01 94 1030.1
20210921023825 54 155 0.0 0.0 0.00 0.01 0.01 94 1030.0
20210921023322 55 155 0.0 0.0 0.00 0.01 0.01 94 1029.9
20210921022821 55 155 0.0 0.0 0.00 0.01 0.01 95 1029.8
20210921022321 55 155 0.0 0.0 0.00 0.01 0.01 95 1029.9
20210921021821 55 155 0.0 0.0 0.00 0.01 0.01 95 1029.9
20210921021322 55 155 0.0 0.0 0.00 0.01 0.01 95 1029.9